FW7184 Weather Reports


Display with metric or nautical units.
time (UTC)temp
F
wind
direction
speed
MPH
gust
MPH
rain 1hr
in
rain 24hr
in
rain mn
in
humidity
%
barometer
mb
20260831131727 66 188 0.0 1.0 0.00 0.00 0.00 99 1021.0
20260831131224 66 174 0.0 1.0 0.00 0.00 0.00 99 1021.2
20260831130718 66 207 1.0 2.0 0.00 0.00 0.00 99 1021.2
20260831130213 66 203 1.0 2.0 0.00 0.00 0.00 99 1020.8
20260831125712 66 232 0.0 1.0 0.00 0.00 0.00 99 1021.1
20260831125208 66 200 0.0 0.0 0.00 0.00 0.00 99 1021.2
20260831124703 65 205 0.0 0.0 0.00 0.00 0.00 99 1021.2
20260831124159 65 221 0.0 0.0 0.00 0.00 0.00 99 1021.2
20260831123659 65 316 1.0 2.0 0.00 0.00 0.00 99 1021.3
20260831123158 65 213 0.0 0.0 0.00 0.00 0.00 99 1021.2
20260831122657 65 204 0.0 0.0 0.00 0.00 0.00 99 1021.3
20260831122153 65 204 0.0 0.0 0.00 0.00 0.00 99 1021.3
20260831121652 65 207 0.0 0.0 0.00 0.00 0.00 99 1021.4
20260831121149 65 206 0.0 0.0 0.00 0.00 0.00 99 1021.0
20260831120645 65 203 0.0 0.0 0.00 0.00 0.00 99 1020.9
20260831120139 65 206 0.0 0.0 0.00 0.00 0.00 99 1021.0
20260831115636 65 198 0.0 0.0 0.00 0.00 0.00 99 1020.9
20260831115131 65 202 0.0 0.0 0.00 0.00 0.00 99 1021.1
20260831114630 64 202 0.0 0.0 0.00 0.00 0.00 99 1021.2
20260831114125 64 203 0.0 0.0 0.00 0.00 0.00 99 1020.9
20260831113624 64 203 0.0 0.0 0.00 0.00 0.00 99 1020.9
20260831113120 64 206 0.0 0.0 0.00 0.00 0.00 99 1020.8
20260831112618 64 201 0.0 0.0 0.00 0.00 0.00 99 1021.0
20260831112113 64 203 0.0 0.0 0.00 0.00 0.00 99 1020.5
20260831111604 64 203 0.0 0.0 0.00 0.00 0.00 99 1020.7
20260831111100 64 202 0.0 0.0 0.00 0.00 0.00 99 1020.7
20260831110555 64 201 0.0 0.0 0.00 0.00 0.00 99 1020.8
20260831110049 63 206 0.0 0.0 0.00 0.00 0.00 99 1020.8
20260831105549 63 208 0.0 0.0 0.00 0.00 0.00 99 1020.5
20260831105043 63 202 0.0 0.0 0.00 0.00 0.00 99 1020.5
20260831104540 64 199 0.0 0.0 0.00 0.00 0.00 99 1020.6
20260831104036 64 200 0.0 0.0 0.00 0.00 0.00 99 1020.2
20260831103531 64 203 0.0 0.0 0.00 0.00 0.00 99 1020.5
20260831103027 64 202 0.0 0.0 0.00 0.00 0.00 99 1020.2
20260831102521 64 202 0.0 0.0 0.00 0.00 0.00 99 1020.1
20260831102016 64 199 0.0 0.0 0.00 0.00 0.00 99 1020.0
20260831101511 64 207 0.0 0.0 0.00 0.00 0.00 99 1020.1
20260831101007 64 200 0.0 0.0 0.00 0.00 0.00 99 1020.1
20260831100503 64 203 0.0 0.0 0.00 0.00 0.00 99 1019.9
20260831095958 64 201 0.0 0.0 0.00 0.00 0.00 99 1019.9
20260831095457 64 201 0.0 0.0 0.00 0.00 0.00 99 1019.8
20260831094952 64 201 0.0 0.0 0.00 0.00 0.00 99 1020.2
20260831094448 64 197 0.0 0.0 0.00 0.00 0.00 99 1019.8
20260831093944 64 202 0.0 0.0 0.00 0.00 0.00 99 1019.7
20260831093438 65 199 0.0 0.0 0.00 0.00 0.00 99 1019.8
20260831092935 65 195 0.0 0.0 0.00 0.00 0.00 99 1019.8
20260831092431 65 200 0.0 0.0 0.00 0.00 0.00 99 1019.9
20260831091926 65 198 0.0 0.0 0.00 0.00 0.00 99 1019.9
20260831091421 65 201 0.0 0.0 0.00 0.00 0.00 99 1019.9
20260831090916 65 202 0.0 0.0 0.00 0.00 0.00 99 1019.8
20260831090412 65 203 0.0 0.0 0.00 0.00 0.00 99 1019.9
20260831085908 65 201 0.0 0.0 0.00 0.00 0.00 99 1019.9
20260831085403 65 203 0.0 0.0 0.00 0.00 0.00 99 1019.9
20260831084902 65 200 0.0 0.0 0.00 0.00 0.00 99 1019.9
20260831084358 65 202 0.0 0.0 0.00 0.00 0.00 99 1019.7
20260831083854 65 199 0.0 0.0 0.00 0.00 0.00 99 1019.5
20260831083350 65 202 0.0 0.0 0.00 0.00 0.00 99 1019.5
20260831082848 65 197 0.0 0.0 0.00 0.00 0.00 99 1019.8
20260831082343 66 192 0.0 0.0 0.00 0.00 0.00 99 1019.7
20260831081839 65 198 0.0 0.0 0.00 0.00 0.00 99 1019.7
20260831081334 66 198 0.0 0.0 0.00 0.00 0.00 99 1019.8
20260831080830 65 198 0.0 0.0 0.00 0.00 0.00 99 1019.9
20260831080330 65 203 0.0 0.0 0.00 0.00 0.00 99 1019.8
20260831075826 66 201 0.0 0.0 0.00 0.00 0.00 99 1019.8
20260831075321 66 202 0.0 0.0 0.00 0.00 0.00 99 1019.7
20260831074816 66 192 0.0 0.0 0.00 0.00 0.00 99 1019.6
20260831074314 65 201 0.0 0.0 0.00 0.00 0.00 99 1019.5
20260831073811 65 201 0.0 0.0 0.00 0.00 0.00 99 1019.7
20260831073309 65 201 0.0 0.0 0.00 0.00 0.00 99 1019.7
20260831072804 65 194 0.0 0.0 0.00 0.00 0.00 99 1019.5
20260831072301 65 207 0.0 0.0 0.00 0.00 0.00 99 1019.7
20260831071756 65 199 0.0 0.0 0.00 0.00 0.00 99 1019.8
20260831071251 65 202 0.0 0.0 0.00 0.00 0.00 99 1019.7
20260831070750 66 199 0.0 0.0 0.00 0.00 0.00 99 1019.8
20260831070249 65 199 0.0 0.0 0.00 0.00 0.00 99 1019.9
20260831065748 65 198 0.0 0.0 0.00 0.00 0.00 99 1019.6
20260831065247 65 202 0.0 0.0 0.00 0.00 0.00 99 1019.5
20260831064742 66 190 0.0 0.0 0.00 0.00 0.00 99 1019.7
20260831064237 66 203 0.0 0.0 0.00 0.00 0.00 99 1019.6
20260831063733 66 202 0.0 0.0 0.00 0.00 0.00 99 1019.6
20260831063228 66 199 0.0 0.0 0.00 0.00 0.00 99 1019.5
20260831062728 66 198 0.0 0.0 0.00 0.00 0.00 99 1019.7
20260831062223 66 199 0.0 0.0 0.00 0.00 0.00 99 1019.7
20260831061721 66 199 0.0 0.0 0.00 0.00 0.00 99 1019.4
20260831061216 66 197 0.0 0.0 0.00 0.00 0.00 99 1019.8
20260831060712 67 199 0.0 0.0 0.00 0.00 0.00 99 1019.7
20260831060207 67 199 0.0 0.0 0.00 0.00 0.00 99 1019.8
20260831055706 67 198 0.0 0.0 0.00 0.00 0.00 99 1019.8
20260831055201 67 193 0.0 0.0 0.00 0.00 0.00 99 1019.8
20260831054656 67 203 0.0 0.0 0.00 0.00 0.00 99 1019.7
20260831054155 67 202 0.0 0.0 0.00 0.00 0.00 99 1019.5
20260831053650 67 202 0.0 0.0 0.00 0.00 0.00 99 1019.5
20260831053149 67 198 0.0 0.0 0.00 0.00 0.00 99 1019.5
20260831052648 67 198 0.0 0.0 0.00 0.00 0.00 99 1019.5
20260831052148 68 198 0.0 0.0 0.00 0.00 0.00 99 1019.4
20260831051645 68 197 0.0 0.0 0.00 0.00 0.00 99 1019.6
20260831051144 68 197 0.0 0.0 0.00 0.00 0.00 99 1019.4
20260831050639 68 200 0.0 0.0 0.00 0.00 0.00 99 1019.2
20260831050138 68 193 0.0 0.0 0.00 0.00 0.00 99 1019.4
20260831045638 68 197 0.0 0.0 0.00 0.00 0.00 99 1019.3
20260831045133 68 198 0.0 0.0 0.00 0.00 0.00 99 1019.6
20260831044628 68 180 0.0 0.0 0.00 0.00 0.00 99 1019.4
20260831044124 68 195 0.0 0.0 0.00 0.00 0.00 99 1019.5
20260831043620 68 199 0.0 0.0 0.00 0.00 0.00 99 1019.5
20260831043114 68 199 0.0 0.0 0.00 0.00 0.00 99 1019.3
20260831042614 68 197 0.0 0.0 0.00 0.00 0.00 99 1019.3
20260831042109 68 192 0.0 0.0 0.00 0.00 0.00 99 1019.3
20260831041603 69 206 0.0 0.0 0.00 0.00 0.00 99 1019.4
20260831041057 69 197 0.0 0.0 0.00 0.00 0.00 99 1019.3
20260831040552 69 193 0.0 0.0 0.00 0.00 0.00 99 1019.5
20260831040051 69 200 0.0 0.0 0.00 0.17 0.17 99 1019.4
20260831035543 69 177 0.0 0.0 0.00 0.17 0.17 99 1019.3
20260831035039 69 201 0.0 0.0 0.00 0.17 0.17 99 1019.4
20260831034538 69 200 0.0 0.0 0.00 0.17 0.17 99 1019.5
20260831034028 69 198 0.0 0.0 0.00 0.17 0.17 99 1019.6
20260831033523 69 199 0.0 0.0 0.00 0.17 0.17 99 1019.6
20260831033018 69 198 0.0 0.0 0.00 0.17 0.17 99 1019.6
20260831032518 69 199 0.0 0.0 0.00 0.17 0.17 99 1019.5
20260831032014 70 198 0.0 0.0 0.00 0.17 0.17 99 1019.6
20260831031513 70 198 0.0 0.0 0.00 0.17 0.17 99 1019.3
20260831031013 70 197 0.0 0.0 0.00 0.17 0.17 99 1019.5
20260831030512 70 197 0.0 0.0 0.00 0.17 0.17 99 1019.7
20260831030011 71 197 0.0 0.0 0.00 0.17 0.17 99 1019.7
20260831025509 71 197 0.0 0.0 0.07 0.17 0.17 99 1019.6
20260831025005 71 197 0.0 0.0 0.12 0.17 0.17 99 1019.8
20260831024501 71 196 0.0 0.0 0.05 0.16 0.16 99 1019.9
20260831024000 71 194 0.0 0.0 0.07 0.15 0.15 99 1020.1
20260831023458 71 198 0.0 0.0 0.07 0.15 0.15 99 1020.0
20260831022953 71 198 0.0 0.0 0.00 0.14 0.14 99 1020.0
20260831022452 71 198 0.0 0.0 0.00 0.14 0.14 99 1019.9
20260831021947 71 198 0.0 0.0 0.05 0.14 0.14 99 1019.9
20260831021446 71 197 0.0 0.0 0.05 0.14 0.14 99 1019.9
20260831020943 71 196 0.0 0.0 0.00 0.13 0.13 99 1019.9
20260831020442 71 195 0.0 0.0 0.00 0.13 0.13 99 1020.0
20260831015937 71 195 0.0 0.0 0.00 0.13 0.13 99 1020.0
20260831015433 71 198 0.0 0.0 0.00 0.13 0.13 99 1019.8
20260831014928 71 197 0.0 0.0 0.00 0.13 0.13 99 1019.7
20260831014423 71 197 0.0 0.0 0.00 0.13 0.13 99 1019.8
20260831013919 71 197 0.0 0.0 0.00 0.13 0.13 99 1019.6
20260831013414 71 197 0.0 0.0 0.00 0.13 0.13 99 1019.7
20260831012908 71 197 0.0 0.0 0.07 0.13 0.13 99 1019.5
20260831012403 71 197 0.0 0.0 0.00 0.12 0.12 99 1019.6
20260831011903 71 196 0.0 0.0 0.00 0.12 0.12 99 1019.5
20260831011358 71 197 0.0 0.0 0.05 0.12 0.12 99 1019.5
20260831010854 71 197 0.0 0.0 0.05 0.12 0.12 99 1019.5
20260831010353 71 197 0.0 0.0 0.07 0.11 0.11 99 1019.3
20260831005850 72 197 0.0 0.0 0.12 0.11 0.11 99 1019.5
20260831005345 72 197 0.0 0.0 0.05 0.10 0.10 99 1019.4
20260831004839 72 197 0.0 0.0 0.07 0.09 0.09 99 1019.5
20260831004336 72 197 0.0 0.0 0.07 0.09 0.09 99 1019.5
20260831003831 72 197 0.0 0.0 0.07 0.08 0.08 99 1019.0
20260831003322 72 195 0.0 0.0 0.00 0.07 0.07 99 1019.3
20260831002821 72 194 0.0 0.0 0.05 0.07 0.07 99 1019.1
20260831002320 72 197 0.0 0.0 0.12 0.07 0.07 99 1019.3
20260831001816 72 198 0.0 0.0 0.07 0.06 0.06 99 1019.2
20260831001311 72 196 0.0 0.0 0.05 0.05 0.05 99 1019.0
20260831000809 72 197 0.0 0.0 0.05 0.05 0.05 98 1019.0
20260831000310 73 197 0.0 0.0 0.07 0.04 0.04 98 1018.9
20260830235806 73 196 0.0 0.0 0.07 0.04 0.04 98 1018.8
20260830235305 73 196 0.0 0.0 0.05 0.03 0.03 97 1018.7
20260830234756 73 195 0.0 0.0 0.00 0.02 0.02 96 1018.9
20260830234253 73 196 0.0 0.0 0.07 0.02 0.02 96 1018.7
20260830233748 74 196 0.0 0.0 0.05 0.01 0.01 95 1018.4
20260830233243 74 197 0.0 0.0 0.05 0.01 0.01 94 1018.7
20260830232739 74 196 0.0 0.0 0.00 0.00 0.00 92 1018.7
20260830232235 74 194 0.0 0.0 0.00 0.00 0.00 91 1018.5
20260830231731 75 194 0.0 0.0 0.00 0.00 0.00 90 1018.4
20260830231230 75 194 0.0 0.0 0.00 0.00 0.00 90 1018.4
20260830230726 75 195 0.0 0.0 0.00 0.00 0.00 90 1018.4
20260830230221 75 194 0.0 0.0 0.00 0.00 0.00 89 1018.5
20260830225720 75 194 0.0 0.0 0.00 0.00 0.00 89 1018.2
20260830225215 75 205 0.0 0.0 0.00 0.00 0.00 88 1018.5
20260830224714 75 193 0.0 0.0 0.00 0.00 0.00 88 1018.6
20260830224210 75 194 0.0 0.0 0.00 0.00 0.00 88 1018.5
20260830223706 75 196 0.0 0.0 0.00 0.00 0.00 88 1018.4
20260830223201 75 200 0.0 0.0 0.00 0.00 0.00 88 1018.3
20260830222656 75 193 0.0 0.0 0.00 0.00 0.00 88 1018.4
20260830222152 75 195 0.0 0.0 0.00 0.00 0.00 88 1018.4
20260830221647 76 196 0.0 0.0 0.00 0.00 0.00 88 1018.3
20260830221144 76 193 0.0 0.0 0.00 0.00 0.00 88 1018.6
20260830220639 76 193 0.0 0.0 0.00 0.00 0.00 87 1018.7
20260830220138 76 196 0.0 0.0 0.00 0.00 0.00 87 1018.5
20260830215637 76 193 0.0 0.0 0.00 0.00 0.00 87 1018.7
20260830215131 76 195 0.0 0.0 0.00 0.00 0.00 86 1018.5
20260830214626 76 194 0.0 0.0 0.00 0.00 0.00 85 1018.6
20260830214121 76 194 0.0 0.0 0.00 0.00 0.00 86 1018.5
20260830213621 76 209 0.0 0.0 0.00 0.00 0.00 85 1018.4
20260830213116 77 182 0.0 0.0 0.00 0.00 0.00 85 1018.4
20260830212612 77 193 0.0 0.0 0.00 0.00 0.00 84 1018.4
20260830212107 77 190 0.0 0.0 0.00 0.00 0.00 84 1018.5
20260830211602 77 197 0.0 0.0 0.00 0.00 0.00 84 1018.4
20260830211101 77 205 0.0 0.0 0.00 0.00 0.00 84 1018.4
20260830210557 77 194 0.0 0.0 0.00 0.00 0.00 83 1018.4
20260830210056 78 254 0.0 0.0 0.00 0.00 0.00 83 1018.5
20260830205553 78 220 1.0 2.0 0.00 0.00 0.00 82 1018.7
20260830205050 77 203 0.0 0.0 0.00 0.00 0.00 83 1018.7
20260830204549 77 190 0.0 0.0 0.00 0.00 0.00 84 1018.8
20260830204048 77 246 1.0 3.0 0.00 0.00 0.00 83 1018.8
20260830203544 76 215 1.0 1.0 0.00 0.00 0.00 84 1018.9
20260830203038 76 180 0.0 0.0 0.00 0.00 0.00 85 1018.9
20260830202533 76 161 1.0 1.0 0.00 0.00 0.00 85 1019.2
20260830202029 76 191 0.0 0.0 0.00 0.00 0.00 85 1019.0
20260830201528 76 202 0.0 0.0 0.00 0.00 0.00 85 1019.1
20260830201023 75 163 1.0 1.0 0.00 0.00 0.00 85 1019.2
20260830200518 75 159 1.0 1.0 0.00 0.00 0.00 86 1019.1
20260830200017 75 156 0.0 1.0 0.00 0.00 0.00 86 1019.1
20260830195513 75 335 2.0 2.0 0.00 0.00 0.00 85 1018.9
20260830195011 75 236 0.0 0.0 0.00 0.00 0.00 86 1019.0
20260830194510 75 159 0.0 0.0 0.00 0.00 0.00 85 1019.3
20260830194005 75 194 0.0 0.0 0.00 0.00 0.00 85 1019.1
20260830193504 75 189 0.0 0.0 0.00 0.00 0.00 85 1019.2
20260830192959 75 183 0.0 1.0 0.00 0.00 0.00 85 1019.3
20260830192454 75 197 0.0 0.0 0.00 0.00 0.00 85 1019.4
20260830191949 75 211 0.0 0.0 0.00 0.00 0.00 85 1019.3
20260830191444 75 200 0.0 0.0 0.00 0.00 0.00 84 1019.5
20260830190940 75 192 0.0 0.0 0.00 0.00 0.00 84 1019.5
20260830190434 75 202 0.0 1.0 0.00 0.00 0.00 84 1020.0
20260830185934 75 185 0.0 0.0 0.00 0.00 0.00 85 1019.9
20260830185429 75 192 0.0 0.0 0.00 0.00 0.00 85 1019.9
20260830184925 75 189 1.0 1.0 0.00 0.00 0.00 84 1019.9
20260830184423 75 199 0.0 0.0 0.00 0.00 0.00 84 1020.1
20260830183923 75 181 0.0 0.0 0.00 0.00 0.00 83 1020.0
20260830183418 75 143 0.0 0.0 0.00 0.00 0.00 82 1019.9
20260830182914 75 189 0.0 0.0 0.00 0.00 0.00 82 1020.0
20260830182409 75 193 0.0 0.0 0.00 0.00 0.00 81 1020.3
20260830181905 76 184 0.0 0.0 0.00 0.00 0.00 79 1020.3
20260830181401 76 200 0.0 1.0 0.00 0.00 0.00 79 1020.3
20260830180900 76 198 0.0 1.0 0.00 0.00 0.00 79 1020.1
20260830180354 76 178 0.0 0.0 0.00 0.00 0.00 79 1020.7
20260830175853 75 245 1.0 1.0 0.00 0.00 0.00 78 1020.6
20260830175348 75 205 1.0 1.0 0.00 0.00 0.00 77 1020.5
20260830174843 75 183 0.0 1.0 0.00 0.00 0.00 78 1020.3
20260830174338 75 179 0.0 0.0 0.00 0.00 0.00 77 1020.5
20260830173833 75 190 0.0 1.0 0.00 0.00 0.00 76 1020.6
20260830173329 75 175 0.0 0.0 0.00 0.00 0.00 74 1020.3
20260830172825 75 190 0.0 0.0 0.00 0.00 0.00 74 1020.7
20260830172321 75 181 0.0 0.0 0.00 0.00 0.00 73 1021.0
20260830171816 76 204 0.0 1.0 0.00 0.00 0.00 71 1020.8
20260830171312 76 197 0.0 0.0 0.00 0.00 0.00 71 1021.0
20260830170807 76 200 0.0 0.0 0.00 0.00 0.00 71 1020.9
20260830170306 76 164 0.0 0.0 0.00 0.00 0.00 70 1021.0
20260830165804 77 201 0.0 1.0 0.00 0.00 0.00 67 1021.0
20260830165300 77 133 0.0 1.0 0.00 0.00 0.00 66 1021.1
20260830164751 78 161 0.0 0.0 0.00 0.00 0.00 65 1020.8
20260830164247 78 213 1.0 2.0 0.00 0.00 0.00 64 1020.8
20260830163743 77 161 1.0 1.0 0.00 0.00 0.00 65 1021.0
20260830163239 77 351 0.0 1.0 0.00 0.00 0.00 65 1021.0
20260830162733 76 197 0.0 0.0 0.00 0.00 0.00 69 1020.8
20260830162229 76 174 0.0 0.0 0.00 0.00 0.00 67 1021.0
20260830161725 76 189 0.0 1.0 0.00 0.00 0.00 65 1021.1
20260830161219 75 179 1.0 1.0 0.00 0.00 0.00 66 1021.1
20260830160715 76 176 1.0 1.0 0.00 0.00 0.00 65 1021.3
20260830160214 76 3 3.0 3.0 0.00 0.00 0.00 66 1021.4
20260830155711 76 216 1.0 2.0 0.00 0.00 0.00 66 1021.6
20260830155207 75 187 0.0 1.0 0.00 0.00 0.00 66 1021.7
20260830154702 74 201 0.0 0.0 0.00 0.00 0.00 69 1021.7
20260830154157 74 183 0.0 0.0 0.00 0.00 0.00 70 1021.8
20260830153654 74 204 0.0 0.0 0.00 0.00 0.00 70 1021.7
20260830153154 75 199 0.0 0.0 0.00 0.00 0.00 68 1021.8
20260830152652 75 212 1.0 1.0 0.00 0.00 0.00 67 1022.0
20260830152152 74 191 0.0 0.0 0.00 0.00 0.00 69 1022.1
20260830151647 74 181 0.0 0.0 0.00 0.00 0.00 68 1022.0
20260830151147 75 184 1.0 2.0 0.00 0.00 0.00 66 1021.9
20260830150642 74 198 0.0 0.0 0.00 0.00 0.00 67 1022.2
20260830150136 74 197 1.0 2.0 0.00 0.00 0.00 67 1022.5
20260830145636 73 193 0.0 0.0 0.00 0.00 0.00 69 1022.6
20260830145131 73 205 0.0 0.0 0.00 0.00 0.00 68 1022.6
20260830144627 74 193 0.0 0.0 0.00 0.00 0.00 67 1022.6
20260830144122 74 179 0.0 0.0 0.00 0.00 0.00 67 1022.6
20260830143618 73 206 0.0 0.0 0.00 0.00 0.00 69 1022.5
20260830143116 73 200 1.0 1.0 0.00 0.00 0.00 68 1022.4
20260830142612 74 165 1.0 1.0 0.00 0.00 0.00 68 1022.5
20260830142106 73 192 2.0 2.0 0.00 0.00 0.00 68 1022.7
20260830141602 73 63 1.0 3.0 0.00 0.00 0.00 68 1022.5
20260830141057 72 198 0.0 0.0 0.00 0.00 0.00 70 1022.2
20260830140556 72 232 0.0 0.0 0.00 0.00 0.00 71 1022.2
20260830140052 71 189 0.0 0.0 0.00 0.00 0.00 72 1022.5
20260830135547 71 204 0.0 0.0 0.00 0.00 0.00 73 1022.2
20260830135042 70 135 0.0 1.0 0.00 0.00 0.00 75 1022.3
20260830134538 70 205 0.0 0.0 0.00 0.00 0.00 75 1022.5
20260830134033 69 197 0.0 0.0 0.00 0.00 0.00 76 1022.5
20260830133529 69 194 0.0 0.0 0.00 0.00 0.00 77 1022.8
20260830133024 68 193 0.0 0.0 0.00 0.00 0.00 79 1022.5
20260830132520 68 195 0.0 0.0 0.00 0.00 0.00 81 1022.7